Temperature
24 24 24 24 24 23 23 24 24 25 25 26 26 25 24 23 22 21 20 20 19 19 18 17 17 16 16 16 15 15 14 14 14 14 13 13 13 13 13 13 13 12 12 12
24 24 23 23 24 23 23 23 24 24 24 26 25 24 24 23 22 21 21 20 20 19 18 18 17 17 16 16 15 15 14 14 14 14 14 14 13 13 13 13 13 13 13 13
24 24 23 24 25 24 24 24 24 24 25 26 25 24 24 23 22 21 21 21 20 20 19 18 18 17 16 16 16 15 15 14 14 14 14 14 14 13 13 13 13 13 13 13
24 24 22 25 24 24 24 24 25 24 25 25 24 23 23 22 22 22 21 20 20 20 19 19 18 17 17 16 16 15 15 14 14 14 14 14 14 14 14 13 13 13 13 13
23 23 23 25 24 23 23 24 25 24 24 24 23 22 23 22 22 22 21 21 20 20 19 19 18 17 17 16 16 15 15 15 14 14 14 14 14 14 14 13 13 13 13 13
23 22 22 24 24 23 23 24 25 24 24 23 23 25 25 23 22 21 21 21 20 20 19 19 18 18 17 17 16 16 15 15 15 15 15 14 14 14 14 14 14 13 13 13
22 22 23 24 22 22 23 24 23 23 23 23 23 24 23 22 21 21 21 21 20 20 19 19 18 18 17 17 16 16 16 15 15 15 15 14 14 14 14 14 14 13 13 13
22 22 23 23 22 23 24 23 22 22 22 22 22 21 21 21 21 21 21 21 20 20 19 19 19 18 17 17 16 16 16 15 15 15 14 14 14 14 14 14 13 13 13 13
23 23 23 21 22 22 21 21 21 21 21 20 20 20 20 20 20 20 20 20 20 20 19 19 18 18 17 17 17 16 16 15 15 15 14 14 14 14 13 13 13 13 13 13
21 23 22 20 20 20 19 19 20 20 19 19 20 20 20 20 20 20 20 20 20 19 19 19 18 18 17 17 17 16 16 15 15 14 14 14 14 13 13 13 13 12 12 12
21 22 21 21 20 19 19 19 19 19 19 19 19 20 20 20 20 20 20 20 19 19 19 18 18 18 17 17 16 16 15 15 14 14 14 13 13 13 13 13 13 13 12 12
20 21 21 20 19 18 18 18 18 18 19 19 19 19 19 19 19 19 19 19 19 19 18 18 18 17 17 17 16 15 15 14 14 14 13 13 13 13 13 13 13 12 12 12
18 18 18 17 17 17 17 17 17 17 18 18 19 19 19 19 19 19 19 19 19 19 18 18 17 17 17 16 16 15 15 14 14 13 13 13 12 12 12 12 12 12 12 12
16 15 16 16 16 16 16 16 17 17 17 17 18 18 18 18 18 18 18 18 18 18 18 17 17 17 16 16 15 15 14 14 14 13 13 12 12 12 11 11 11 11 11 11
14 14 14 15 15 15 15 15 16 16 17 17 17 17 17 18 18 18 18 18 17 17 17 17 16 16 16 15 15 14 14 14 13 13 12 12 12 11 11 11 10 10 10 10
13 13 13 13 14 14 14 14 15 15 16 16 16 16 16 17 17 17 17 17 17 16 16 16 16 16 15 15 14 14 14 14 13 13 12 12 11 11 11 10 10 10 9 9
11 12 12 13 13 13 13 13 14 14 14 15 15 15 15 15 16 16 16 16 16 16 15 15 15 15 15 14 14 13 13 13 13 12 11 11 11 10 10 10 9 9 9 9
10 10 10 11 11 12 12 13 13 13 13 14 14 14 14 15 15 15 15 15 15 14 14 14 14 14 14 13 13 12 12 12 11 11 11 10 10 10 9 9 9 8 8 8
9 9 10 10 10 10 11 12 12 13 13 13 13 13 14 14 14 14 14 14 14 13 13 13 13 13 13 13 12 12 11 11 11 10 10 10 9 9 8 8 8 8 7 7
9 9 9 9 10 10 10 11 11 12 12 12 12 12 13 13 13 13 13 13 13 13 13 12 12 12 11 12 11 11 11 10 10 9 9 9 8 8 8 8 7 7 7 6
9 9 9 9 9 9 10 10 10 11 11 11 11 12 12 12 12 12 12 11 12 12 11 11 11 11 10 10 10 10 10 9 9 8 8 8 8 7 7 7 7 6 6 6
8 8 8 9 9 9 9 9 9 10 10 10 10 11 11 11 11 11 11 11 11 11 10 10 10 10 10 9 9 9 9 8 8 8 7 7 7 7 6 6 6 5 5 5
8 8 8 8 8 8 8 9 9 9 9 9 10 10 10 10 10 10 9 10 10 10 9 9 9 9 9 8 8 8 8 7 7 7 7 6 6 6 6 5 5 5 5 4
7 7 7 7 7 8 8 8 8 8 8 8 9 9 9 9 9 9 9 9 9 9 9 9 9 8 8 7 7 7 7 7 7 6 6 6 5 5 5 5 5 4 4 4
7 7 7 7 7 7 7 7 7 7 8 8 8 8 8 8 8 8 8 8 8 8 8 8 8 7 7 7 6 6 6 6 6 6 5 5 5 5 4 4 4 4 3 3
6 6 7 7 7 7 7 7 7 7 7 7 7 7 7 7 7 8 8 8 7 7 7 7 6 6 6 6 6 6 6 6 5 5 5 5 4 4 4 4 3 3 3 3
6 6 6 6 6 6 6 6 6 6 6 6 7 7 7 7 7 7 7 7 7 6 6 6 6 5 5 5 5 5 5 5 5 5 4 4 4 4 3 3 3 3 3 2
Wind_Speed
5 4 5 8 9 10 12 12 12 12 12 12 9 8 7 7 8 9 9 10 11 11 10 10 10 9 8 7 7 6 5 4 3 3 2 2 2 2 3 3 3 3 3 3
7 5 6 9 11 12 13 12 13 14 14 11 9 7 7 8 9 10 11 11 11 11 11 11 11 10 9 8 7 7 6 5 3 3 2 2 2 2 2 2 3 3 3 3
8 4 6 9 9 10 9 10 11 12 12 9 8 8 9 8 9 11 11 11 11 12 12 12 11 11 10 9 8 8 7 5 4 4 3 2 2 2 2 2 2 3 3 3
7 7 9 4 0 4 8 10 11 12 11 10 9 8 8 8 9 10 10 10 11 11 11 11 10 10 10 9 9 8 7 6 5 4 3 3 3 2 3 2 2 2 3 3
7 9 9 6 3 4 6 7 6 8 9 6 5 5 6 7 8 9 9 9 9 10 10 10 11 11 10 10 9 9 8 7 6 5 4 3 3 3 3 3 2 3 2 3
7 9 8 4 1 1 5 6 3 5 6 4 3 5 3 3 6 6 6 7 8 9 10 10 10 11 11 11 10 9 8 7 6 5 4 4 4 3 3 3 3 3 3 3
11 11 8 4 1 4 6 3 6 5 5 5 6 6 4 1 4 5 6 7 8 9 9 10 10 11 12 11 10 8 8 7 6 5 5 4 4 3 3 3 3 4 3 3
8 9 7 2 4 4 4 6 6 6 6 6 7 7 4 3 3 5 6 7 9 9 9 9 10 11 11 10 8 8 7 7 6 5 4 4 4 3 3 3 4 3 3 3
6 5 3 1 3 4 6 7 8 8 8 7 7 7 5 5 5 6 7 8 8 9 9 9 10 10 11 9 8 8 8 7 6 6 5 4 3 3 3 3 3 3 3 3
7 9 7 7 6 6 7 9 11 10 9 8 8 8 7 6 6 6 7 8 8 10 10 10 10 10 9 9 9 9 9 8 7 6 5 4 3 2 2 2 3 3 3 3
12 11 9 6 5 7 10 11 11 11 10 10 10 9 8 7 7 7 7 8 9 10 10 10 10 10 9 9 9 9 9 8 7 6 5 4 3 1 1 1 2 3 3 3
13 12 11 12 12 13 14 14 13 13 12 11 10 10 9 8 8 7 8 8 9 10 10 10 10 10 10 9 10 10 8 8 6 6 5 5 4 4 4 3 5 4 4 4
16 15 15 16 16 14 14 14 13 13 13 12 10 9 9 9 8 8 9 10 11 11 11 11 11 10 10 10 10 10 9 7 6 6 6 5 5 5 4 4 4 5 5 5
13 13 15 14 14 14 14 14 13 12 12 11 10 9 8 8 8 9 10 10 10 10 10 11 11 11 10 10 10 10 9 7 6 6 5 5 5 5 4 4 3 3 5 6
12 12 14 14 14 14 13 12 12 11 11 10 8 8 8 9 9 9 8 8 9 10 10 11 11 10 10 10 10 10 8 7 6 6 5 5 5 4 4 4 3 3 3 5
11 11 11 12 13 13 12 12 12 12 11 10 8 8 8 8 8 7 8 9 10 11 11 11 11 10 10 10 10 8 7 6 6 6 6 5 5 5 4 4 4 3 2 2
8 9 10 11 11 12 11 11 11 12 11 10 9 8 7 6 6 7 7 9 9 9 10 10 10 9 9 10 9 7 7 8 8 6 6 5 5 5 5 4 4 3 3 3
7 8 9 10 11 12 12 12 11 11 10 10 9 7 6 7 8 7 7 8 8 8 8 9 9 9 9 9 8 7 7 7 7 6 6 6 6 5 5 5 5 5 4 4
6 7 8 8 9 10 10 11 11 10 9 8 7 7 7 7 7 7 7 9 9 9 8 8 10 10 10 9 8 7 7 7 7 6 6 7 6 6 5 5 5 5 4 4
5 6 7 8 8 9 9 10 9 8 7 7 7 6 6 6 6 7 8 8 7 6 8 10 10 9 9 9 8 7 7 8 8 7 7 6 6 6 6 5 5 5 4 4
6 7 7 8 9 9 9 10 9 8 8 6 6 6 6 5 6 7 8 7 6 7 9 10 9 8 8 8 8 7 7 7 7 7 7 6 6 6 6 6 5 5 4 3
7 7 8 9 9 10 10 9 9 8 7 6 6 5 5 5 6 6 7 5 6 8 8 8 7 8 9 9 7 7 7 7 6 6 6 6 6 6 6 6 5 4 4 3
7 8 9 9 9 10 10 9 9 8 7 6 5 5 5 5 5 5 5 4 6 10 8 7 9 12 12 8 7 7 7 7 6 6 6 6 6 6 6 5 5 4 4 3
8 8 9 9 9 9 10 10 9 7 7 6 5 4 4 4 4 4 3 7 9 10 7 8 12 14 11 6 6 7 7 7 6 6 6 6 5 5 5 5 4 4 4 4
10 10 10 10 9 8 9 9 9 8 6 4 4 3 3 3 3 4 4 7 9 9 7 10 14 13 9 7 7 7 7 6 6 6 6 6 5 5 5 5 4 4 4 3
10 10 9 9 9 8 8 7 7 6 5 4 3 2 2 2 3 4 5 7 9 9 8 8 10 10 7 7 7 7 7 7 7 6 6 6 6 6 5 5 6 5 4 3
11 10 9 8 8 7 7 6 6 6 5 5 4 3 2 2 3 4 6 6 7 8 8 8 8 8 7 7 7 7 6 6 6 6 6 6 6 6 6 6 5 4 4 4
Wind_Direction
280 286 263 256 243 223 232 254 268 276 276 282 280 263 247 229 216 207 203 200 199 198 197 194 197 197 196 196 195 196 202 213 224 233 248 279 301 310 318 324 325 334 336 338
265 255 255 260 255 241 241 252 259 269 274 276 281 264 245 230 217 212 209 205 203 200 197 197 196 194 192 194 194 194 200 206 212 230 243 274 289 302 319 313 317 333 341 346
270 268 265 259 253 240 238 238 248 260 274 283 272 257 245 233 219 217 215 207 202 200 199 199 196 192 192 192 188 193 198 198 207 220 233 259 274 284 292 294 313 319 335 338
273 270 260 286 62 244 247 260 254 263 279 282 277 275 257 241 228 221 214 207 202 199 196 195 190 188 189 187 188 194 198 200 203 219 232 248 263 275 280 293 302 306 323 327
261 267 272 276 241 228 246 274 271 263 275 288 290 268 241 224 224 223 212 205 198 194 189 186 185 184 184 186 188 193 198 203 203 211 225 239 251 263 275 283 288 291 306 306
246 262 266 283 63 221 250 261 324 281 279 277 249 257 261 191 204 211 200 189 182 181 181 182 181 180 186 190 191 196 198 203 202 209 219 231 244 258 266 271 278 283 287 289
244 254 262 289 142 182 238 308 1 325 298 264 246 277 321 255 200 197 186 178 175 177 181 180 176 179 190 193 197 195 193 196 198 203 214 226 237 246 255 262 273 278 283 283
238 248 256 137 163 212 308 344 339 325 313 285 272 286 287 250 204 185 178 174 175 177 177 175 177 184 191 193 190 184 185 190 195 202 209 216 224 240 250 257 262 270 278 284
245 263 1 187 248 303 325 315 320 318 312 298 280 273 265 242 216 195 187 180 179 179 174 173 179 188 190 184 180 178 181 187 193 196 198 209 218 227 239 246 263 276 282 289
260 265 282 282 282 293 301 298 302 305 303 292 279 271 257 241 222 205 194 186 182 182 181 179 180 186 188 177 175 180 184 189 190 195 196 195 204 228 241 259 266 275 285 293
265 275 286 277 291 317 320 312 305 301 296 286 278 268 255 240 225 211 199 190 187 190 189 184 179 181 181 177 179 183 187 189 190 191 191 187 170 151 234 46 346 306 301 305
266 278 282 286 304 313 309 308 308 302 296 289 275 267 257 245 230 215 203 193 192 194 191 186 182 181 178 178 184 188 188 190 190 188 185 184 171 146 81 70 67 47 13 346
272 283 285 287 293 299 299 300 302 296 290 288 279 266 254 245 231 217 207 200 198 195 191 186 182 182 179 179 186 190 189 188 187 190 187 187 187 186 169 144 121 75 54 44
275 282 280 282 289 297 298 299 298 294 290 284 280 270 254 242 230 219 212 205 198 193 189 185 183 183 180 179 183 188 188 183 184 184 188 190 191 194 195 192 175 136 96 75
272 273 275 284 289 292 296 296 294 292 294 290 283 268 251 238 229 222 213 198 190 190 188 184 183 181 177 179 182 184 183 181 180 181 182 184 185 186 187 187 180 161 140 116
282 279 279 282 286 292 295 295 291 291 293 290 283 271 257 245 235 219 202 191 189 192 189 186 184 176 174 177 178 179 177 163 170 174 175 177 178 179 176 173 168 160 147 122
285 284 291 293 295 297 297 296 294 293 292 287 283 275 259 240 223 210 200 196 197 194 188 184 177 170 172 175 175 173 169 163 168 174 173 171 169 167 163 159 151 138 117 80
288 291 296 299 301 301 300 298 296 295 292 289 286 271 246 227 219 211 197 187 184 184 183 178 170 166 170 172 172 170 168 168 171 169 164 162 158 157 154 150 146 139 128 119
304 306 308 307 305 302 300 300 298 296 295 289 278 264 247 234 221 202 186 182 182 183 179 171 162 168 167 164 161 166 166 163 162 160 157 152 158 157 156 154 150 146 142 136
317 320 321 321 321 317 313 310 305 300 296 287 275 264 248 232 213 194 187 190 192 185 170 165 168 170 165 161 161 162 162 162 160 159 160 165 164 161 159 157 156 155 153 149
323 327 330 330 328 325 322 319 313 307 304 291 273 259 245 225 204 192 187 189 182 169 164 163 169 165 162 157 162 160 161 161 162 164 165 167 166 165 164 164 164 165 163 160
315 321 324 326 326 324 323 320 315 308 304 295 277 261 239 215 202 198 195 189 171 161 164 169 168 158 156 156 162 161 162 163 165 165 167 169 171 170 170 168 170 171 172 172
303 310 313 315 317 317 318 319 318 312 304 296 282 260 237 218 202 195 194 179 166 166 168 168 157 154 157 164 163 164 166 167 168 168 169 173 175 176 175 175 177 177 180 181
301 304 306 307 308 311 314 317 315 310 305 299 283 262 238 216 208 205 187 160 162 163 168 157 158 161 165 171 167 169 170 169 169 171 172 176 179 181 181 182 184 186 189 194
295 297 299 303 304 307 310 311 310 309 307 303 292 265 239 221 206 188 172 167 165 167 167 165 165 167 175 178 175 174 174 174 173 172 176 181 183 186 189 190 192 194 199 206
292 292 292 292 294 297 299 298 297 299 299 297 294 280 249 207 182 174 171 173 174 175 173 171 172 177 184 180 178 177 175 172 174 181 183 184 187 189 192 194 195 200 205 211
286 286 286 286 286 286 285 282 281 283 285 282 279 268 237 207 190 180 176 176 177 179 179 178 179 182 181 179 180 180 179 178 181 183 185 187 189 191 192 194 199 200 200 206
Height
1485 1485 1486 1486 1486 1489 1489 1484 1485 1480 1479 1473 1471 1473 1475 1477 1479 1481 1483 1484 1486 1488 1490 1492 1495 1497 1498 1500 1501 1501 1502 1503 1503 1502 1502 1501 1500 1499 1498 1496 1495 1494 1492 1491
1485 1484 1485 1485 1482 1482 1484 1482 1481 1479 1476 1468 1470 1471 1472 1474 1475 1477 1479 1481 1483 1485 1487 1489 1491 1493 1495 1497 1498 1500 1501 1501 1501 1501 1501 1500 1499 1498 1497 1496 1495 1494 1492 1491
1485 1482 1484 1484 1475 1476 1476 1475 1475 1475 1469 1465 1467 1468 1469 1470 1471 1473 1475 1477 1479 1481 1483 1486 1488 1490 1492 1494 1496 1497 1499 1499 1499 1500 1499 1499 1498 1497 1496 1496 1494 1493 1492 1491
1484 1485 1493 1474 1470 1471 1472 1470 1468 1467 1465 1465 1465 1466 1466 1467 1468 1469 1471 1473 1475 1478 1480 1483 1485 1487 1490 1492 1493 1495 1496 1497 1498 1498 1498 1498 1497 1496 1496 1495 1494 1493 1492 1490
1484 1485 1480 1470 1468 1470 1471 1467 1463 1464 1463 1464 1464 1464 1462 1463 1464 1466 1468 1470 1472 1474 1477 1480 1482 1484 1487 1489 1491 1492 1494 1495 1495 1496 1496 1496 1496 1495 1495 1494 1493 1492 1491 1490
1483 1488 1486 1471 1467 1468 1470 1467 1462 1462 1462 1463 1463 1460 1458 1460 1461 1463 1465 1467 1469 1471 1474 1476 1479 1481 1484 1486 1488 1490 1491 1492 1493 1494 1494 1494 1494 1494 1493 1493 1492 1491 1490 1489
1480 1480 1472 1464 1467 1469 1473 1467 1463 1462 1461 1461 1461 1459 1460 1459 1460 1461 1462 1464 1466 1468 1471 1473 1476 1478 1481 1483 1485 1487 1488 1489 1490 1491 1492 1492 1492 1492 1492 1491 1490 1490 1489 1488
1476 1479 1474 1465 1466 1466 1464 1463 1463 1462 1461 1460 1460 1459 1458 1458 1458 1459 1460 1462 1463 1466 1468 1470 1473 1475 1478 1480 1482 1484 1485 1486 1487 1488 1489 1489 1489 1490 1489 1489 1489 1488 1487 1487
1468 1467 1465 1465 1465 1465 1465 1464 1463 1461 1460 1459 1457 1457 1456 1456 1456 1457 1458 1459 1461 1463 1465 1467 1470 1472 1475 1477 1479 1480 1482 1483 1485 1486 1486 1487 1487 1487 1487 1487 1487 1486 1486 1485
1468 1462 1464 1465 1464 1464 1464 1463 1461 1460 1458 1456 1455 1454 1453 1453 1454 1454 1455 1456 1458 1460 1462 1464 1466 1469 1471 1473 1475 1477 1479 1480 1482 1483 1484 1484 1484 1484 1484 1484 1484 1484 1483 1483
1465 1462 1462 1461 1462 1462 1461 1460 1458 1456 1455 1453 1452 1451 1450 1450 1450 1451 1452 1453 1455 1456 1458 1461 1463 1465 1467 1470 1472 1474 1476 1477 1479 1479 1480 1481 1481 1481 1481 1481 1481 1481 1480 1480
1462 1461 1461 1459 1459 1459 1458 1456 1454 1452 1450 1449 1448 1447 1447 1446 1446 1447 1448 1449 1451 1452 1454 1457 1459 1461 1463 1466 1468 1470 1472 1474 1475 1476 1477 1478 1478 1478 1478 1478 1478 1477 1477 1477
1462 1460 1459 1457 1456 1455 1454 1451 1450 1448 1446 1444 1443 1443 1442 1442 1442 1442 1443 1445 1446 1448 1450 1452 1455 1457 1459 1461 1464 1466 1468 1470 1471 1472 1474 1474 1475 1476 1476 1476 1475 1475 1474 1474
1459 1457 1455 1453 1452 1450 1449 1446 1445 1443 1441 1440 1438 1437 1437 1437 1437 1438 1439 1440 1442 1443 1446 1448 1450 1452 1455 1457 1459 1462 1464 1465 1467 1468 1470 1471 1472 1473 1473 1474 1474 1473 1472 1471
1454 1453 1451 1449 1447 1445 1443 1442 1440 1438 1436 1435 1433 1432 1432 1431 1431 1432 1434 1435 1437 1439 1441 1443 1445 1448 1450 1453 1455 1457 1459 1461 1463 1464 1466 1467 1468 1469 1470 1470 1471 1471 1470 1469
1449 1447 1446 1444 1442 1440 1438 1436 1435 1432 1431 1430 1428 1427 1427 1426 1427 1427 1428 1430 1431 1433 1435 1438 1440 1443 1445 1448 1450 1453 1455 1457 1458 1460 1462 1463 1465 1466 1467 1467 1468 1468 1468 1467
1445 1442 1441 1439 1437 1435 1433 1432 1430 1428 1426 1425 1423 1422 1422 1421 1421 1422 1423 1424 1427 1429 1431 1433 1435 1438 1441 1443 1446 1448 1451 1452 1454 1457 1458 1460 1461 1462 1463 1464 1464 1465 1465 1464
1441 1439 1438 1436 1433 1431 1428 1426 1424 1423 1421 1419 1418 1417 1417 1416 1416 1417 1418 1420 1422 1424 1427 1429 1431 1433 1436 1439 1441 1444 1446 1449 1451 1453 1454 1456 1457 1459 1460 1461 1462 1462 1462 1463
1437 1435 1433 1431 1429 1426 1424 1421 1419 1417 1416 1414 1413 1412 1412 1412 1412 1413 1414 1415 1417 1419 1421 1424 1426 1429 1432 1434 1437 1440 1442 1445 1447 1449 1451 1452 1454 1456 1457 1458 1459 1460 1460 1461
1433 1432 1429 1427 1425 1422 1419 1417 1414 1412 1410 1409 1409 1408 1408 1408 1408 1409 1410 1411 1413 1415 1417 1420 1422 1425 1428 1430 1433 1436 1438 1441 1443 1445 1447 1449 1451 1453 1454 1455 1456 1457 1458 1459
1430 1428 1426 1424 1421 1419 1416 1413 1411 1408 1406 1405 1405 1404 1404 1403 1404 1405 1406 1408 1410 1412 1414 1417 1419 1422 1425 1427 1430 1432 1435 1437 1440 1442 1444 1446 1448 1450 1451 1452 1454 1455 1456 1456
1428 1425 1423 1420 1418 1416 1413 1411 1408 1405 1403 1402 1401 1400 1400 1400 1400 1401 1403 1404 1406 1408 1411 1414 1416 1419 1421 1424 1427 1429 1432 1434 1436 1438 1441 1443 1445 1447 1448 1449 1451 1452 1453 1454
1425 1423 1420 1418 1415 1413 1410 1407 1405 1403 1400 1399 1398 1397 1397 1397 1397 1398 1399 1401 1403 1405 1408 1411 1413 1416 1419 1422 1424 1426 1429 1431 1433 1435 1437 1439 1442 1443 1445 1446 1448 1449 1450 1450
1421 1419 1417 1415 1412 1409 1407 1404 1402 1400 1398 1396 1395 1394 1394 1394 1395 1396 1397 1398 1400 1403 1406 1408 1411 1414 1417 1419 1422 1424 1426 1428 1430 1433 1435 1437 1439 1440 1442 1443 1444 1445 1446 1447
1417 1415 1413 1411 1408 1406 1403 1401 1399 1397 1394 1393 1392 1392 1392 1392 1393 1393 1394 1396 1399 1401 1404 1406 1409 1412 1414 1417 1419 1421 1424 1426 1428 1430 1432 1433 1435 1437 1438 1440 1441 1442 1443 1443
1413 1411 1408 1407 1404 1402 1400 1398 1396 1394 1392 1391 1390 1389 1390 1390 1390 1391 1393 1395 1397 1399 1402 1404 1407 1410 1412 1415 1417 1419 1421 1423 1425 1427 1429 1430 1432 1433 1435 1436 1437 1438 1438 1439
1407 1405 1403 1401 1400 1398 1396 1394 1392 1391 1390 1388 1388 1387 1387 1388 1389 1389 1391 1393 1395 1397 1400 1402 1405 1408 1410 1412 1414 1417 1419 1421 1423 1424 1426 1427 1429 1430 1431 1432 1433 1434 1434 1434